Theta_e
314 314 315 315 315 315 314 313 311 310 309 310 310 310 310 310 311 309 309 313 307 303 305 306 307 305 305 305 301 306 304 305 305 301 301 301 300 302 301 303 302 301 300 300 301 298 296 313 312 307 314 320 320 321
314 314 314 314 314 315 314 313 311 309 309 310 310 310 310 310 311 309 307 311 310 303 304 308 309 310 310 310 306 307 305 305 308 304 306 306 302 303 302 297 308 300 304 301 303 302 315 318 315 316 317 318 320 320
313 314 314 314 314 314 313 311 310 308 309 310 310 310 310 310 310 309 306 308 307 303 304 305 306 311 313 310 312 303 306 308 308 310 306 305 301 305 300 301 303 307 313 307 306 309 312 314 317 316 320 320 321 322
313 313 313 313 313 313 312 310 308 308 309 310 310 310 311 311 312 310 305 309 306 303 298 304 311 308 313 313 312 311 309 312 311 310 306 304 301 307 301 303 302 306 308 307 307 310 312 315 315 316 315 316 316 319
312 313 313 313 313 312 310 309 308 308 309 310 310 310 311 311 310 309 309 310 310 303 298 302 308 311 312 311 310 312 310 308 306 304 303 301 304 303 305 305 301 306 305 302 301 309 311 312 314 315 314 314 317 318
312 312 312 313 311 310 308 307 308 308 309 309 310 311 311 310 308 308 304 314 313 310 299 298 309 309 311 311 310 310 310 309 308 303 303 305 309 305 300 299 307 307 310 311 307 311 311 312 314 315 315 316 319 319
311 312 312 311 310 308 307 307 308 309 309 310 310 310 310 310 309 305 303 308 308 307 300 299 304 309 310 311 312 309 310 309 307 306 305 306 307 306 302 299 307 309 310 312 313 313 310 312 311 315 316 317 318 319
312 311 310 309 308 307 306 308 309 309 310 310 310 310 311 310 309 308 312 308 311 303 303 297 302 305 311 308 309 314 308 308 309 307 308 305 306 308 301 307 310 311 311 312 313 313 313 316 318 317 317 317 316 317
311 310 309 308 306 306 307 308 309 310 309 309 309 309 310 308 305 308 312 311 309 304 298 300 299 299 311 308 310 310 311 304 311 306 304 307 303 299 307 310 311 312 312 312 314 316 318 316 316 317 318 319 319 320
309 308 307 306 306 307 308 308 309 309 309 308 309 308 305 309 311 312 309 302 301 303 303 300 303 296 307 310 307 305 309 307 301 304 313 305 303 310 312 314 315 315 316 318 314 315 317 316 318 318 317 320 320 320
308 306 306 306 307 307 307 308 308 309 307 310 307 306 311 309 311 307 301 298 301 298 304 306 307 304 311 302 303 307 305 306 298 303 302 303 304 305 308 310 312 314 313 314 319 320 320 320 320 320 320 322 323 323
306 306 306 307 306 307 307 307 308 309 309 306 306 308 311 307 304 299 297 303 300 299 306 303 307 309 310 309 301 303 300 303 294 303 297 295 303 306 306 308 310 312 315 314 316 318 320 321 322 321 322 323 325 326
307 307 307 306 306 307 307 307 308 308 308 310 306 302 302 304 293 293 293 299 299 304 308 308 305 309 310 306 302 301 296 296 304 296 294 297 304 305 306 308 309 315 317 318 320 322 321 321 323 323 324 326 328 328
307 307 307 307 307 307 308 308 308 309 308 303 300 291 296 295 298 302 302 302 306 308 307 308 307 306 307 302 303 295 300 300 292 287 290 300 303 307 310 312 313 314 316 319 321 322 321 321 322 326 325 325 328 327
307 306 306 307 307 308 308 308 308 311 306 300 301 291 296 302 305 307 307 308 310 310 308 307 309 307 303 299 301 299 295 291 291 291 299 305 308 309 310 314 313 314 317 320 322 321 322 322 322 322 326 328 327 327
306 305 308 307 307 308 309 308 311 310 303 301 300 297 302 301 302 305 306 306 310 308 311 311 305 300 297 298 295 294 292 289 296 303 307 310 309 309 310 313 314 316 319 321 321 322 323 322 322 324 323 326 329 328
304 308 306 306 307 308 308 310 305 299 297 295 298 302 302 302 301 304 306 308 310 307 302 305 297 296 302 298 297 299 297 303 306 309 312 315 318 317 317 317 320 318 320 321 321 321 320 322 323 326 326 328 328 328
305 309 306 306 308 307 310 308 303 299 294 300 299 304 305 304 303 304 307 308 307 307 305 302 306 299 298 297 300 304 308 310 313 314 315 318 323 322 321 320 321 318 320 320 322 323 325 325 325 321 321 325 326 327
307 309 306 306 307 308 302 302 305 298 300 304 304 305 305 305 307 308 308 309 310 311 307 306 301 300 303 307 306 307 310 311 313 317 316 323 322 319 320 322 320 319 320 318 324 322 322 324 322 325 326 325 325 327
305 306 306 306 306 306 299 302 310 302 299 303 306 304 306 305 307 308 307 308 308 307 304 302 303 307 307 309 310 314 318 316 319 317 319 318 318 318 318 318 318 318 320 320 321 313 319 323 324 325 324 324 321 319
302 308 308 308 307 306 303 302 300 303 303 302 306 305 302 305 302 305 306 308 305 303 302 306 307 309 312 315 321 324 317 317 316 315 316 316 319 320 317 319 319 318 317 318 318 318 316 318 321 323 321 322 326 324
309 306 309 307 303 302 301 305 302 305 303 304 304 306 302 300 300 308 313 306 305 307 309 309 312 317 319 319 322 324 321 318 319 322 310 311 317 315 316 316 317 316 317 316 316 315 316 318 320 321 321 321 318 322
303 306 307 305 299 297 296 306 299 302 298 302 306 301 303 301 306 314 306 307 307 316 318 317 318 319 318 321 321 320 321 319 317 319 316 313 314 318 322 321 320 317 316 316 315 315 315 309 314 316 316 315 313 314
302 303 299 298 299 294 302 299 303 302 304 301 302 297 300 304 310 308 305 307 308 310 312 316 317 320 321 319 313 314 321 320 317 317 318 316 315 315 317 317 317 315 315 314 312 313 317 318 311 318 318 314 310 309
293 294 296 290 300 296 296 297 299 300 297 300 298 298 300 307 299 299 298 303 304 305 307 316 314 315 310 312 316 320 320 317 314 313 316 316 316 315 315 315 317 317 318 316 315 315 316 316 315 315 313 309 307 307
289 296 292 296 297 296 298 295 297 297 299 296 299 303 303 299 296 294 303 305 306 307 308 313 312 311 311 315 318 319 317 318 318 312 315 317 317 315 314 313 313 315 318 317 315 313 313 314 314 313 312 309 301 310
288 293 298 303 301 301 301 303 304 301 296 296 301 300 299 295 295 300 308 311 308 310 311 313 312 312 314 316 315 320 320 320 318 316 318 317 318 319 317 315 314 317 319 318 316 314 312 312 311 311 310 310 310 309
296 297 294 299 299 302 298 299 298 297 301 305 303 296 296 297 298 305 308 310 310 311 313 315 312 308 309 311 317 319 318 318 318 317 317 317 316 316 319 319 316 300 315 314 316 314 312 311 309 308 308 307 307 308
297 301 301 298 299 300 300 299 301 306 309 305 300 300 301 307 308 307 309 310 312 311 311 311 311 310 312 316 318 320 320 318 314 309 306 306 307 311 316 318 317 316 313 310 294 302 308 308 308 308 308 308 308 308
296 302 298 297 297 297 303 307 307 309 308 307 307 307 307 308 309 313 310 310 310 314 314 309 307 310 311 314 314 315 317 315 312 309 305 305 307 311 314 315 315 314 313 312 310 309 297 307 304 309 308 308 307 307
303 301 297 299 298 302 305 307 307 307 307 306 307 305 305 306 309 314 315 315 316 315 310 308 309 313 315 315 316 313 307 311 311 311 310 310 310 311 311 312 313 313 312 310 309 308 307 306 306 306 305 304 304 303
300 299 299 296 299 306 308 304 304 303 305 306 305 307 307 305 304 312 319 320 317 317 304 304 308 308 311 312 312 311 303 311 311 311 311 310 310 311 310 311 311 310 310 309 309 307 306 305 305 304 304 303 304 304
301 302 302 300 301 300 304 303 303 303 304 302 302 303 305 308 305 313 320 321 319 310 306 308 309 310 311 311 311 309 307 310 300 292 293 293 293 299 309 309 309 308 307 307 307 307 305 305 304 304 304 304 303 303
Wind_Speed
9 9 9 8 8 7 7 5 4 3 5 6 7 8 8 8 8 7 3 3 6 5 9 8 9 9 6 5 7 6 7 7 6 9 8 7 7 9 11 16 16 16 14 14 15 19 23 4 6 13 9 7 6 7
9 9 9 8 8 8 7 6 4 2 4 6 7 7 7 7 7 5 2 1 4 6 7 10 12 13 13 13 7 4 6 4 5 5 2 4 6 7 10 12 9 14 15 12 12 7 6 5 3 4 9 7 6 8
9 8 8 8 7 7 6 6 4 3 4 5 6 7 7 8 8 6 4 4 6 6 8 7 4 6 9 15 14 8 5 5 4 5 7 5 6 6 9 9 12 8 7 8 13 13 16 7 7 8 2 4 8 11
7 7 5 5 5 5 7 6 4 3 4 6 7 9 9 9 9 6 6 4 4 5 5 3 5 5 4 8 10 13 14 3 4 5 7 7 7 3 9 13 12 10 6 10 15 16 16 14 12 3 12 14 12 10
5 3 3 3 6 8 6 4 3 3 5 6 8 9 9 10 7 7 6 4 5 6 6 7 14 1 4 4 11 11 12 12 7 5 6 8 7 8 10 13 12 13 16 14 14 14 13 13 16 16 16 14 14 12
3 3 4 7 8 6 5 3 3 5 6 8 9 9 9 7 6 6 3 2 3 2 3 5 5 3 3 4 7 9 9 8 7 5 5 9 14 10 8 13 15 12 13 15 16 17 18 18 19 17 17 16 15 15
4 4 8 8 6 4 2 3 5 6 8 10 9 9 9 6 6 4 5 3 4 2 3 5 3 4 2 4 3 3 6 5 6 7 7 12 11 6 12 17 20 18 16 17 17 17 20 20 17 19 16 17 12 16
5 8 8 6 5 3 2 4 6 8 9 10 10 8 6 5 8 5 2 11 5 4 3 4 4 4 3 4 3 6 5 7 8 8 9 8 8 4 8 13 8 7 5 8 8 7 13 15 14 14 16 15 17 16
9 8 7 5 3 2 3 5 8 9 10 11 11 7 5 5 2 2 6 6 6 3 4 3 5 4 5 5 5 4 5 6 3 7 9 5 7 8 10 8 8 6 8 12 15 17 15 16 18 15 13 14 15 14
8 7 6 4 2 2 3 6 8 10 11 8 6 5 3 3 5 6 5 2 3 4 4 5 1 3 5 3 2 4 4 4 4 3 1 6 10 15 6 10 12 12 12 14 14 16 13 13 14 17 17 15 15 14
7 6 4 3 2 2 4 6 9 11 8 3 1 1 2 2 3 3 2 3 3 4 5 5 5 8 4 5 3 2 4 3 3 3 4 3 1 6 8 11 9 12 11 16 16 17 16 14 14 14 14 14 13 14
6 5 3 3 3 4 5 5 9 6 3 5 5 4 3 3 2 3 3 3 5 3 2 3 4 5 2 1 1 2 4 2 3 4 2 4 2 8 14 15 16 15 18 15 15 17 18 16 14 14 13 15 14 14
6 4 4 3 4 5 6 5 4 5 8 3 3 2 1 2 2 4 4 3 2 2 1 5 6 3 1 1 3 2 3 2 2 3 2 5 9 12 15 13 13 12 13 14 17 16 14 13 11 13 14 14 13 11
5 4 4 4 5 8 6 3 3 4 5 3 2 2 5 5 5 3 0 2 3 4 7 5 6 2 2 2 1 3 2 3 2 3 5 6 11 14 14 11 11 13 13 13 14 11 11 10 12 9 10 10 8 9
4 3 4 6 3 2 2 0 2 3 2 3 3 4 6 4 3 3 4 4 3 4 6 7 2 1 1 2 2 3 3 3 2 4 6 9 16 16 14 13 10 11 11 10 10 9 10 9 5 8 8 8 6 5
3 4 2 1 4 3 2 4 3 1 2 3 4 5 5 5 6 4 3 3 3 5 4 3 2 1 1 1 2 2 3 3 5 6 9 10 15 16 12 11 11 11 11 11 9 9 9 7 6 5 3 5 5 5
3 3 3 0 1 3 3 3 1 3 3 3 5 6 7 7 6 6 4 3 4 5 5 3 3 2 2 4 2 2 3 9 10 12 10 14 14 12 10 10 10 7 11 9 8 7 5 4 5 5 3 2 6 6
4 5 2 2 4 2 3 3 2 3 5 7 5 1 3 5 6 6 4 4 4 3 4 3 4 2 3 3 2 3 8 10 8 10 11 13 13 13 10 11 9 6 10 9 6 7 7 4 8 8 6 6 3 5
0 3 3 2 4 3 3 4 4 4 5 3 5 5 5 5 6 6 6 4 4 3 5 2 4 3 3 4 8 10 10 9 11 11 7 11 11 12 11 12 9 10 10 8 9 7 7 7 3 5 4 5 7 5
4 6 6 4 5 3 4 4 2 5 4 2 4 6 4 5 6 5 5 4 4 4 4 5 6 4 6 8 9 9 7 8 9 10 8 9 9 10 10 8 7 8 6 6 7 8 6 7 7 8 7 6 6 8
5 4 4 6 4 4 4 2 4 4 5 4 4 3 4 3 4 6 6 4 6 8 7 7 8 8 9 9 8 6 3 5 5 4 8 8 8 8 7 7 7 6 6 7 6 7 7 5 5 5 6 5 8 9
2 3 2 3 3 3 4 3 5 3 4 4 5 4 3 2 2 3 1 6 5 4 2 5 6 8 8 9 8 7 4 4 5 4 4 7 8 7 7 6 6 7 8 8 8 8 7 7 6 7 8 9 9 8
2 4 3 5 4 3 4 2 4 4 4 3 2 3 3 1 3 1 3 1 4 7 7 6 8 10 8 6 5 4 5 5 4 5 5 5 3 4 8 10 9 9 9 9 7 6 8 9 11 10 10 11 11 11
2 4 4 3 5 3 3 4 4 4 3 4 1 5 5 2 3 3 1 4 2 6 7 6 6 4 1 4 3 2 1 3 2 7 6 6 8 10 10 10 10 6 6 2 6 9 10 11 10 11 13 14 13 13
2 3 3 4 4 5 5 4 5 4 4 2 2 3 3 2 2 3 2 3 3 4 6 4 4 6 3 3 3 2 4 5 5 7 6 6 5 6 8 10 10 10 9 10 12 12 13 13 13 14 15 15 15 16
4 6 5 5 3 5 3 3 1 3 3 3 3 1 2 1 1 0 1 3 2 2 5 5 5 5 4 3 2 3 4 4 3 8 8 7 8 7 8 8 9 9 9 10 10 12 13 13 13 15 14 14 11 13
3 5 5 3 3 3 4 4 2 2 3 4 1 3 1 2 1 1 2 1 2 1 3 4 3 4 5 4 3 2 2 3 5 6 5 6 7 8 9 9 9 7 7 9 9 11 11 11 11 11 11 11 11 11
4 3 6 7 5 4 4 2 2 3 1 1 1 3 3 3 1 1 1 1 2 3 4 3 1 3 5 3 2 2 3 4 4 4 6 6 7 7 7 7 8 9 9 11 9 10 10 10 10 10 11 11 10 10
5 4 4 7 6 4 3 3 2 2 2 2 1 2 3 2 1 1 0 1 2 2 4 1 3 4 2 2 3 0 1 2 6 7 5 6 7 7 6 6 6 8 8 10 15 13 14 11 10 10 10 9 8 8
4 4 4 4 5 4 1 1 1 1 3 3 3 4 5 2 2 1 1 2 4 3 3 3 3 3 3 5 5 5 3 4 6 6 6 7 7 6 6 6 6 6 6 6 7 8 5 6 5 6 7 7 6 6
1 3 4 4 4 3 2 2 4 4 4 4 4 5 5 2 2 3 5 5 5 5 4 4 2 1 3 3 4 7 7 6 9 10 7 7 8 7 6 5 5 5 5 6 7 7 6 7 7 8 9 9 9 9
4 5 4 5 4 1 2 4 3 3 3 3 2 1 1 1 3 4 4 5 4 4 2 3 2 5 4 5 5 7 9 7 6 6 8 7 7 6 5 5 5 5 5 6 6 7 8 8 8 8 8 9 9 9
5 4 5 5 3 4 2 3 2 3 1 1 2 3 3 6 6 4 4 3 3 3 4 5 6 7 7 8 8 7 8 9 10 10 10 12 11 10 4 5 5 6 6 6 6 6 7 8 7 8 8 8 9 9
Wind_Direction
275 271 266 261 250 243 229 228 233 285 317 329 335 337 339 350 357 317 24 9 316 288 295 260 263 262 240 242 274 58 256 185 238 245 253 249 241 252 244 253 259 251 241 234 233 252 253 128 188 239 3 318 341 333
278 274 265 253 246 233 217 206 213 257 301 323 331 333 335 337 344 306 286 150 308 258 301 320 277 279 268 275 302 215 335 327 339 273 247 300 242 249 253 262 213 247 259 273 271 256 65 60 353 324 305 306 320 328
285 278 266 252 239 215 196 185 203 251 290 314 319 320 323 320 315 312 313 321 271 267 265 236 213 193 227 238 252 263 244 279 232 357 317 292 271 296 268 250 278 256 259 266 276 263 266 242 284 288 328 319 319 314
284 281 265 240 200 185 167 180 204 249 296 312 316 318 318 320 311 296 291 306 278 283 286 90 164 246 244 219 217 231 257 212 300 281 270 265 267 262 279 295 281 275 324 265 256 255 282 265 264 294 310 298 294 295
278 254 194 180 168 157 171 191 219 265 292 304 308 311 314 317 322 277 272 263 252 288 326 311 302 96 191 202 224 224 225 240 262 269 252 264 291 295 267 264 260 257 259 252 259 272 287 285 294 292 290 287 284 281
250 194 197 152 146 156 176 207 265 292 300 298 299 301 307 315 307 277 207 149 205 210 283 291 18 224 240 214 218 212 215 224 231 211 240 240 250 258 270 268 277 272 257 264 270 268 272 277 268 273 273 273 279 266
193 180 141 145 154 166 194 263 286 295 299 301 305 298 293 287 274 295 4 15 97 92 247 285 260 125 269 234 184 216 221 225 247 249 247 258 263 224 262 265 273 272 263 253 256 260 265 264 267 269 261 267 265 270
170 144 150 156 158 175 260 290 299 302 303 303 300 300 288 262 260 242 103 185 205 265 262 291 289 233 6 266 217 191 185 206 208 248 250 253 259 234 257 261 273 296 270 270 258 250 269 287 276 275 260 255 258 260
146 153 153 160 180 233 285 306 310 309 305 298 290 276 231 220 198 86 46 132 204 298 304 282 306 0 347 312 291 236 233 244 207 231 239 252 225 219 247 276 296 306 295 290 286 280 273 249 255 254 247 243 247 254
151 155 160 173 210 257 307 317 316 311 303 292 242 222 176 85 339 168 191 183 178 207 227 262 47 265 275 308 286 295 235 233 237 199 263 244 253 251 324 2 328 311 322 303 279 275 276 268 260 253 254 252 258 264
157 165 170 200 240 289 316 319 318 314 259 232 283 351 63 196 213 229 243 216 154 229 213 234 270 300 178 288 299 274 312 310 268 50 291 276 261 12 321 307 298 292 292 294 288 280 280 273 272 268 267 263 261 258
168 178 201 239 249 294 306 316 316 286 21 359 325 280 250 222 240 261 234 185 213 252 193 235 304 280 325 233 277 287 282 299 278 343 283 281 319 278 290 289 293 288 283 280 273 268 266 269 263 266 265 267 261 259
184 205 228 235 268 287 289 294 298 300 266 199 236 259 270 184 259 233 199 179 225 267 272 289 302 265 124 130 260 278 308 286 341 238 244 239 265 283 295 302 289 288 284 274 267 268 270 275 276 270 267 264 256 244
207 214 241 265 277 285 282 272 243 240 261 252 213 251 231 188 242 261 95 330 305 310 321 317 293 252 154 243 316 263 268 292 319 288 257 270 299 297 305 311 300 302 308 294 287 289 292 281 267 278 283 277 238 229
198 240 266 268 240 173 5 73 225 234 274 267 253 245 226 258 266 254 294 275 268 322 302 293 274 340 340 303 293 299 318 310 268 255 274 293 300 309 309 310 304 307 311 306 305 301 293 291 301 273 252 224 211 215
208 267 214 192 262 265 218 193 208 159 267 265 244 255 237 257 240 216 252 300 3 316 287 272 324 354 37 299 277 287 303 265 264 270 292 299 294 296 302 303 306 304 309 314 324 306 313 302 289 304 303 265 202 211
217 211 123 358 296 158 187 236 182 213 262 233 232 234 271 289 282 288 294 295 319 305 351 319 0 360 292 250 266 172 254 293 298 298 308 301 305 311 318 315 316 324 322 337 338 334 309 283 249 208 219 235 260 252
245 135 148 21 283 181 179 235 211 239 243 238 249 249 222 270 288 283 259 274 274 313 308 8 316 271 244 288 331 273 284 309 317 314 320 321 328 335 332 330 340 349 338 357 19 11 25 98 76 55 24 357 305 190
75 171 154 321 326 264 210 204 250 261 251 277 260 259 265 274 270 270 277 259 262 300 290 298 252 238 260 277 321 328 327 325 317 321 326 340 359 353 347 356 360 360 6 0 36 37 23 44 34 16 23 40 26 52
248 255 256 246 250 249 228 196 222 278 275 353 270 267 266 283 301 273 258 239 227 222 236 243 258 248 286 322 325 322 339 321 322 331 352 9 2 354 355 354 353 348 6 13 40 33 16 35 32 31 31 45 60 31
214 123 134 199 207 252 286 251 234 251 308 272 297 334 292 296 269 276 240 190 223 241 256 258 271 283 313 315 315 313 319 316 344 332 338 342 353 353 1 359 360 4 18 20 24 33 26 25 25 31 39 46 64 85
109 194 195 184 248 229 260 228 287 338 260 282 280 220 242 263 258 240 87 219 236 252 275 298 317 323 303 319 320 330 5 327 344 350 27 9 24 10 13 7 14 23 27 26 28 30 27 24 25 44 46 50 51 55
231 213 213 193 226 204 264 219 248 225 249 244 228 254 191 188 265 230 249 44 16 10 322 304 308 301 293 302 355 13 35 33 26 30 51 52 5 35 58 57 50 36 34 32 24 26 46 35 40 50 52 54 54 58
227 230 227 206 218 254 205 230 215 252 242 237 321 336 323 330 258 248 221 60 349 344 335 323 330 330 343 47 22 336 34 139 130 64 26 54 61 53 51 57 73 71 67 100 58 53 48 58 61 66 65 65 62 63
187 229 182 248 221 238 225 220 214 230 262 289 341 223 213 280 307 28 355 332 349 334 314 339 10 18 358 320 281 141 49 35 53 63 34 23 71 81 75 72 53 35 59 60 60 63 68 67 62 67 76 72 70 71
230 183 200 207 193 226 217 236 190 272 18 4 271 38 74 301 337 267 328 324 288 309 329 333 357 337 338 269 342 79 52 35 320 71 50 31 8 35 59 58 64 46 43 56 59 61 64 64 65 72 80 80 75 79
234 204 192 218 272 251 250 233 268 274 203 217 309 6 345 268 71 209 272 288 274 316 308 298 327 320 299 342 352 40 58 58 54 66 61 52 53 42 37 41 51 33 57 58 58 60 62 66 66 64 63 61 59 64
259 249 221 175 212 234 285 300 238 247 108 176 97 321 299 346 330 82 24 323 298 287 279 299 30 283 308 312 300 157 121 115 122 146 135 97 64 47 55 73 67 56 54 27 49 56 54 53 55 63 66 67 66 63
232 190 213 220 213 196 239 258 294 62 24 344 307 277 306 31 12 323 39 284 305 338 300 283 237 257 284 210 174 214 142 272 64 56 48 50 48 58 55 65 79 82 85 77 49 50 48 50 61 72 73 73 73 70
211 198 239 221 220 222 174 246 343 6 294 304 302 281 272 294 343 115 225 257 255 263 1 339 315 282 215 192 153 125 59 28 32 49 62 64 67 63 68 76 84 87 88 94 98 114 159 113 123 72 56 50 43 53
118 210 237 241 252 255 277 318 290 269 274 273 274 274 291 344 297 232 212 224 241 265 279 254 177 122 156 150 147 139 106 81 76 65 59 73 70 65 67 75 82 75 63 56 57 54 61 66 69 67 59 54 49 32
201 223 237 241 249 195 268 259 276 266 267 260 248 174 161 218 247 176 198 196 225 248 100 276 136 83 78 96 89 73 65 97 102 84 72 72 70 66 68 67 68 63 62 69 66 66 58 54 51 45 55 49 39 35
227 226 243 271 247 219 139 264 241 284 257 277 201 200 219 193 161 169 172 222 347 23 95 90 92 86 81 79 91 90 68 74 71 61 64 51 34 0 9 62 58 55 61 57 57 66 61 50 55 42 40 37 32 27